Location: Córrego Montividiu
(13.2496°S, 48.8603°W)
Time: 11:59:37
(UTC+00:00)

Cosmos 1833 Rocket - Pass Details

Date: 11 March 2026
Orbit: 832 x 837 km, 71.0° (Epoch: 22 April)

Event Time Altitude Azimuth Distance (km) Brightness Sun altitude
Rises 21:53:51 0° 355° (N) 3,360 5.8 -6.1°
Reaches altitude 10° 21:56:19 10° 359° (N) 2,432 5.1 -6.7°
Maximum altitude 22:01:45 53° 75° (ENE) 1,016 2.8 -8.0°
Drops below altitude 10° 22:07:13 10° 151° (SSE) 2,456 4.9 -9.4°
Sets 22:09:43 0° 156° (SSE) 3,395 5.7 -10.0°
